This demonstration page uses our WeatherBlox Daily Observations layout. Learn more.

Left ArrowRight Arrow

39.92423, -83.80882

Hourly Observations for March 16, 2017

Temp ( °F °C ) Dew Point ( °F °C ) Humidity (%) Winds ( mph kmh ) Pressure ( in mb ) Visibility ( mi km ) Precip ( " mm )
12:56 am 00:56 Clear 21 -6.1 14 -10 74 74 WNW 10 17 30.32 1027 10 16.0934 0 0
1:56 am 01:56 Cloudy 22 -5.6 14 -10 71 71 WNW 9 15 30.32 1027 10 16.0934 0 0
2:56 am 02:56 Cloudy 22 -5.6 14 -10 71 71 W 10 17 30.32 1027 10 16.0934 0 0
3:56 am 03:56 Clear 18 -7.8 12 -11.1 77 77 W 8 13 30.32 1027 10 16.0934 0 0
4:56 am 04:56 Clear 16 -8.9 11 -11.7 80 80 W 8 13 30.32 1027 10 16.0934 0 0
5:56 am 05:56 Clear 15 -9.4 11 -11.7 84 84 WSW 6 9 30.34 1028 10 16.0934 0 0
6:56 am 06:56 Clear 15 -9.4 11 -11.7 84 84 WSW 8 13 30.35 1028 10 16.0934 0 0
7:56 am 07:56 Sunny 16 -8.9 12 -11.1 84 84 WSW 8 13 30.36 1028 10 16.0934 0 0
8:56 am 08:56 Sunny 23 -5 16 -8.9 74 74 W 9 15 30.37 1029 10 16.0934 0 0
9:56 am 09:56 Sunny 30 -1.1 17 -8.3 58 58 W 9 15 30.38 1029 10 16.0934 0 0
10:56 am 10:56 Sunny 35 1.7 15 -9.4 44 44 W 13 20 30.38 1029 10 16.0934 0 0
11:56 am 11:56 Sunny 33 0.6 13 -10.6 43 43 W 14 22 30.39 1029 10 16.0934 0 0
12:56 pm 12:56 Sunny 35 1.7 13 -10.6 40 40 WNW 10 17 30.38 1029 10 16.0934 0 0
1:56 pm 13:56 Sunny 37 2.8 13 -10.6 37 37 W 14 22 30.36 1028 10 16.0934 0 0
2:56 pm 14:56 Sunny 39 3.9 13 -10.6 34 34 W 15 24 30.34 1027 10 16.0934 0 0
3:56 pm 15:56 Sunny 39 3.9 13 -10.6 34 34 WNW 10 17 30.32 1027 10 16.0934 0 0
4:56 pm 16:56 Sunny 40 4.4 13 -10.6 33 33 SW 12 19 30.32 1027 10 16.0934 0 0
5:56 pm 17:56 Sunny 40 4.4 13 -10.6 33 33 W 14 22 30.32 1027 10 16.0934 0 0
6:56 pm 18:56 Sunny 38 3.3 12 -11.1 34 34 W 12 19 30.31 1027 10 16.0934 0 0
7:56 pm 19:56 Clear 32 0 12 -11.1 43 43 WSW 7 11 30.32 1027 10 16.0934 0 0
8:56 pm 20:56 Clear 33 0.6 11 -11.7 40 40 WSW 3 6 30.32 1027 10 16.0934 0 0
9:56 pm 21:56 Clear 31 -0.6 13 -10.6 47 47 SW 3 6 30.32 1027 10 16.0934 0 0
11:56 pm 23:56 Clear 24 -4.4 16 -8.9 71 71 SSE 3 6 30.31 1026 10 16.0934 0 0

Powered by AerisWeather